{"data":{"norad_id":66049,"intl_designator":"2025-233S","name":"QIANFAN-107","alt_names":[],"object_type":"PAYLOAD","status":"ACTIVE","operator":null,"country":"PRC","launch_date":"2025-10-17","launch_site_code":"TAISC","launch_vehicle":null,"mission":null,"orbit_class":"UNKNOWN","rcs_meters":null,"size_class":null,"mass_kg":null,"dimensions":null,"purposes":[],"wikipedia_slug":null,"has_3d_model":false,"image_url":null,"decayed_at":null,"tle_current":{"epoch":"2026-09-20T14:11:22.623648Z","epoch_age_seconds":132488,"freshness":"FRESH","line1":"1 66049U 25233S   26263.59123407  .00000073  00000+0  94402-4 0  9992","line2":"2 66049  89.0063  33.5509 0001805  95.6249 264.5108 13.51029554 46075","mean_motion":13.51029554,"eccentricity":0.0001805,"inclination_deg":89.0063,"raan_deg":33.5509,"arg_perigee_deg":95.6249,"mean_anomaly_deg":264.5108,"bstar":9.4402e-5,"rev_number":4607,"period_min":106.58538118108,"perigee_km":1067.1288729277,"apogee_km":1069.8170991327,"semimajor_km":7446.6099860302,"source":"CELESTRAK","updated_at":"2026-09-21T09:00:15.735938Z"}}}